User: anonymous   Login
Location: Caltech
(34.1382°N, 118.1253°W)
Time: 02:47:55
(UTC-07:00)
Language:

OAO 2 Rocket - Orbit

View from above orbital plane
View from above orbital plane
View from above satellite
View from above satellite

Ground track
Ground track

The orbit data is extracted from the following two-line orbital elements,

1 03598U 68110B   15182.82035087  .00000117  00000-0  31563-4 0  9992
2 03598 034.9942 061.7919 0049646 178.7039 181.3789 14.54067939462136
Epoch (UTC): 01 July 2015 19:41:18
Eccentricity: 0.0049646
inclination: 34.9942°
perigee height: 677 km
apogee height: 747 km
right ascension of ascending node: 61.7919°
argument of perigee: 178.7039°
revolutions per day: 14.54067939
mean anomaly at epoch: 181.3789°
orbit number at epoch: 46213

The dashed part of the orbit path shows where the satellite is in the earth's shadow,  

DLR